Regional Weather Roundup
Issued by NWS

Home | Current Version | Previous Version | Text Only | Print | Product List | Glossary On
Versions: 1 2 3 4 5 6 7 8 9 10 11 12 13 14 15 16 17 18 19 20 21 22 23 24 25 26 27 28 29 30 31 32 33 34 35 36 37 38 39 40 41 42 43 44 45 46 47 48
000
ASUS45 KBOU 190510
RWRCO

WEATHER ROUNDUP FOR COLORADO
NATIONAL WEATHER SERVICE DENVER/BOULDER CO
1000 PM MST SUN FEB 18 2018

NOTE: "FAIR" INDICATES FEW OR NO CLOUDS BELOW 12000 FEET WITH NO
SIGNIFICANT WEATHER AND/OR OBSTRUCTIONS TO VISIBILITY.

COZ001>005-013-030-031-190600-
...NORTHWEST COLORADO...

CITY           SKY/WX    TMP DP  RH WIND       PRES   REMARKS
CRAIG          FAIR      44  20  38 SW9       29.41R
HAYDEN         FAIR      40  22  48 SW17G23   29.43S
MEEKER         FAIR      42  21  43 S12       29.43F
RANGELY        FAIR      49  19  30 SW17G26   29.38F
RABBIT EARS PA CLOUDY    27  19  74 SW14G25   29.52S WCI  15
STEAMBOAT SPGS FAIR      40  21  46 SE14      29.44F
WALDEN         MOCLDY    34  19  55 S17       29.47F WCI  23
$$

COZ006>008-011-190600-
...WEST CENTRAL VALLEYS...

CITY           SKY/WX    TMP DP  RH WIND       PRES   REMARKS
GRAND JUNCTION FAIR      53  21  28 SW16G24   29.45F
MONTROSE       FAIR      49  16  26 S21G31    29.53F
EAGLE          FAIR      45  18  34 SW16G22   29.50F
RIFLE          FAIR      50  19  29 SW24G32   29.45F
DELTA          FAIR      55  18  24 SW17G24   29.51F
NUCLA          FAIR      50  23  34 S26G44    29.57F
$$

COZ017>023-064>068-190600-
...SOUTHWEST COLORADO...

CITY           SKY/WX    TMP DP  RH WIND       PRES   REMARKS
DURANGO        FAIR      37  25  61 W5        29.71S
CORTEZ         FAIR      44  25  47 SW13      29.65F
PAGOSA SPRINGS CLOUDY    41  26  54 SW7       29.75F
TELLURIDE      FAIR      35  20  54 SE15G23   29.67F WCI  25
WOLF CREEK PAS HVY SNOW  21  21 100 SW31G44   29.77F VSB 1/4 WCI   3
$$

COZ009-010-012-014-032>034-037-058>063-190600-
...CENTRAL COLORADO...

CITY           SKY/WX    TMP DP  RH WIND       PRES   REMARKS
ASPEN          FAIR      41  13  31 MISG      29.53F
BUENA VISTA    FAIR      35   8  33 CALM      29.58S
COPPER MTN     CLOUDY    27  10  50 S16G25    29.63F WCI  14
BERTHOUD PASS  FAIR      18   7  62 SW22G39   29.60F WCI   0
COTTONWOOD PAS FAIR      36  14  41 SW10G23   29.62R
GUNNISON       FAIR      32  17  54 N5        29.60S WCI  27
GRANBY         FAIR      35  13  39 SW6       29.51F WCI  30
KREMMLING      FAIR      45  16  31 SW16G28   29.49F
LEADVILLE      FAIR      28  10  46 S6        29.58F WCI  22
MONARCH PASS   FAIR      21   9  58 SW35G44   29.76S WCI   2
SALIDA         FAIR      40  11  31 CALM      29.67S
SUNLIGHT       MOCLDY    23  16  74 SW14G33   29.60R WCI  11
WILKERSON PASS FAIR      25   9  50 SW18G26   29.63F WCI  11
$$

COZ069>075-190600-
...SAN LUIS VALLEY/SANGRE DE CRISTO MOUNTAINS...

CITY           SKY/WX    TMP DP  RH WIND       PRES   REMARKS
ALAMOSA        MOCLDY    40  26  57 SW20      29.67F
DEL NORTE      FAIR      35  25  66 W24G35    29.67F WCI  23
LA VETA PASS   CLOUDY    32  21  64 S39G63    29.71F WCI  16
SAGUACHE       FAIR      23   9  54 CALM      29.64F
$$

COZ035-036-038>040-190600-
...NORTHERN COLORADO FRONT RANGE...

CITY           SKY/WX    TMP DP  RH WIND       PRES   REMARKS
DENVER INTL AP FOG       24  22  91 NE13      29.61R VSB 1/2 WCI  12
AURORA         LGT SNOW  25  25 100 NE13      29.61R FOG     WCI  13
FRONT RANGE AP LGT SNOW  26  25  94 NE14      29.62R VSB 3/4 WCI  15
ERIE MUNI ARPT CLOUDY    28  24  86 NE12      29.69R WCI  17
BOULDER MUN AP CLOUDY    30  27  86 NE8       29.61R WCI  23
CENTENNIAL     LGT SNOW  26  25  96 N14       29.61R FOG     WCI  14
BROOMFIELD     CLOUDY    28  27  93 NE12      29.61R WCI  18
FORT COLLINS   CLOUDY    25  20  81 NE13      29.64R WCI  14
LONGMONT       CLOUDY    30  24  79 NE10      29.64S WCI  21
$$

COZ041-046-047-076>085-087-088-190600-
...PIKES PEAK/PALMER DIVIDE AND SOUTHERN FOOTHILLS...

CITY           SKY/WX    TMP DP  RH WIND       PRES   REMARKS
COLO. SPRINGS  FAIR      50  11  20 SW22G37   29.51R
A. F. ACADEMY  FAIR      49   8  19 SW9G32    29.50F
SCHRIEVER AFB  NOT AVBL
CHEYENNE MTN   FAIR      44  10  24 S10       29.47F
ELLICOTT         N/A    N/A N/A N/A SW17      29.51R
FALCON         FAIR      38   9  30 S8        29.54S
FORT CARSON    FAIR      50  12  21 SW10      29.50S
LIMON          CLOUDY    25  25 100 NE18      29.56R FOG     WCI  11
MONUMENT HILL  FAIR      28  23  80 NW15G22   29.57R WCI  17
CANON CITY     CLEAR     54  18  24 W9G17     29.49F
WALSENBURG     NOT AVBL
TRINIDAD       FAIR      52  20  28 SW10G24   29.58F
$$

COZ042>045-048>051-090-091-190600-
...NORTHEAST COLORADO...

CITY           SKY/WX    TMP DP  RH WIND       PRES   REMARKS
GREELEY ARPT   FLURRIES  22  18  85 N17G24    29.67R WCI   8
AKRON          CLOUDY    17  16  95 N18G32    29.62R FOG     WCI   1
BURLINGTON     CLOUDY    27  26  96 N22G35    29.56R FOG     WCI  13
WRAY           CLOUDY    23  21  93 N21G28    29.65R WCI   8
YUMA           NOT AVBL
STERLING       CLOUDY    19  14  79 NE18G24   29.66R WCI   4
HOLYOKE        CLOUDY    23  18  80 N28G33    29.66R WCI   6
FORT MORGAN    CLOUDY    19  16  89 N20       29.67R WCI   3
$$

COZ086-089-092>099-190600-
...SOUTHEAST COLORADO...

CITY           SKY/WX    TMP DP  RH WIND       PRES   REMARKS
PUEBLO         FAIR      50  13  22 CALM      29.47S
LA JUNTA       FAIR      53  14  21 SW20      29.48S
LAMAR          FAIR      46  13  26 SW14      29.45S
SPRINGFIELD      N/A     50  18  28 SW15G22   29.54F
$$




USA.gov is the U.S. government's official web portal to all federal, state and local government web resources and services.